owner,sensor,date,latitude,longitude,vertical_datum,mass_concentration_of_oxygen_in_sea_water,qcFlag 
DISL,ioos:station:DISL:BSCA:1,2017-04-01T00:00:00Z,30.3288,-87.8293,2.06,3.66,1111122 
DISL,ioos:station:DISL:BSCA:1,2017-04-01T00:30:00Z,30.3288,-87.8293,2.034,4.83,1111122 
DISL,ioos:station:DISL:BSCA:1,2017-04-01T01:00:00Z,30.3288,-87.8293,1.997,5.03,1111122 
DISL,ioos:station:DISL:BSCA:1,2017-04-01T01:30:00Z,30.3288,-87.8293,1.977,4.18,1111122 
DISL,ioos:station:DISL:BSCA:1,2017-04-01T02:00:00Z,30.3288,-87.8293,1.953,3.58,1111122 
DISL,ioos:station:DISL:BSCA:1,2017-04-01T02:30:00Z,30.3288,-87.8293,1.941,3.67,1111122 
DISL,ioos:station:DISL:BSCA:1,2017-04-01T03:00:00Z,30.3288,-87.8293,1.924,3.94,1111122 
DISL,ioos:station:DISL:BSCA:1,2017-04-01T03:30:00Z,30.3288,-87.8293,1.898,4.64,1111122 
DISL,ioos:station:DISL:BSCA:1,2017-04-01T04:00:00Z,30.3288,-87.8293,1.874,3.65,1111122 
DISL,ioos:station:DISL:BSCA:1,2017-04-01T04:30:00Z,30.3288,-87.8293,1.852,4.83,1111122 
DISL,ioos:station:DISL:BSCA:1,2017-04-01T05:00:00Z,30.3288,-87.8293,1.836,5.31,1111122 
DISL,ioos:station:DISL:BSCA:1,2017-04-01T05:30:00Z,30.3288,-87.8293,1.819,5.45,1111122 
DISL,ioos:station:DISL:BSCA:1,2017-04-01T06:00:00Z,30.3288,-87.8293,1.812,4.85,1111122 
DISL,ioos:station:DISL:BSCA:1,2017-04-01T06:30:00Z,30.3288,-87.8293,1.805,5.19,1111122 
DISL,ioos:station:DISL:BSCA:1,2017-04-01T07:00:00Z,30.3288,-87.8293,1.805,5.02,1111122 
DISL,ioos:station:DISL:BSCA:1,2017-04-01T07:30:00Z,30.3288,-87.8293,1.817,4.36,1111122 
DISL,ioos:station:DISL:BSCA:1,2017-04-01T08:00:00Z,30.3288,-87.8293,1.831,2.63,1111122 
DISL,ioos:station:DISL:BSCA:1,2017-04-01T08:30:00Z,30.3288,-87.8293,1.854,3.91,1111122 
DISL,ioos:station:DISL:BSCA:1,2017-04-01T09:00:00Z,30.3288,-87.8293,1.868,2.72,1111122 
DISL,ioos:station:DISL:BSCA:1,2017-04-01T09:30:00Z,30.3288,-87.8293,1.899,1.4,1111122 
DISL,ioos:station:DISL:BSCA:1,2017-04-01T10:00:00Z,30.3288,-87.8293,1.929,0.68,1111122 
DISL,ioos:station:DISL:BSCA:1,2017-04-01T10:30:00Z,30.3288,-87.8293,1.952,0.7,1111122 
DISL,ioos:station:DISL:BSCA:1,2017-04-01T11:00:00Z,30.3288,-87.8293,1.97,2.32,1111122 
DISL,ioos:station:DISL:BSCA:1,2017-04-01T11:30:00Z,30.3288,-87.8293,2.0,1.98,1111122 
DISL,ioos:station:DISL:BSCA:1,2017-04-01T12:00:00Z,30.3288,-87.8293,2.012,2.9,1111122 
DISL,ioos:station:DISL:BSCA:1,2017-04-01T12:30:00Z,30.3288,-87.8293,2.028,2.68,1111122 
DISL,ioos:station:DISL:BSCA:1,2017-04-01T13:00:00Z,30.3288,-87.8293,2.042,2.37,1111122 
DISL,ioos:station:DISL:BSCA:1,2017-04-01T13:30:00Z,30.3288,-87.8293,2.059,1.29,1111122 
DISL,ioos:station:DISL:BSCA:1,2017-04-01T14:00:00Z,30.3288,-87.8293,2.078,0.72,1111122 
DISL,ioos:station:DISL:BSCA:1,2017-04-01T14:30:00Z,30.3288,-87.8293,2.103,0.69,1111122 
DISL,ioos:station:DISL:BSCA:1,2017-04-01T15:00:00Z,30.3288,-87.8293,2.12,0.67,1111122 
DISL,ioos:station:DISL:BSCA:1,2017-04-01T15:30:00Z,30.3288,-87.8293,2.151,0.62,1111122 
DISL,ioos:station:DISL:BSCA:1,2017-04-01T16:00:00Z,30.3288,-87.8293,2.171,0.59,1111122 
DISL,ioos:station:DISL:BSCA:1,2017-04-01T16:30:00Z,30.3288,-87.8293,2.219,0.65,1111122 
DISL,ioos:station:DISL:BSCA:1,2017-04-01T17:00:00Z,30.3288,-87.8293,2.203,1.54,1111122 
DISL,ioos:station:DISL:BSCA:1,2017-04-01T17:30:00Z,30.3288,-87.8293,2.221,2.1,1111122 
DISL,ioos:station:DISL:BSCA:1,2017-04-01T18:00:00Z,30.3288,-87.8293,2.234,2.66,1111122 
DISL,ioos:station:DISL:BSCA:1,2017-04-01T18:30:00Z,30.3288,-87.8293,2.238,3.97,1111122 
DISL,ioos:station:DISL:BSCA:1,2017-04-01T19:00:00Z,30.3288,-87.8293,2.237,5.35,1111122 
DISL,ioos:station:DISL:BSCA:1,2017-04-01T19:30:00Z,30.3288,-87.8293,2.22,4.85,1111122 
DISL,ioos:station:DISL:BSCA:1,2017-04-01T20:00:00Z,30.3288,-87.8293,2.212,5.4,1111122 
DISL,ioos:station:DISL:BSCA:1,2017-04-01T20:30:00Z,30.3288,-87.8293,2.196,5.07,1111122 
DISL,ioos:station:DISL:BSCA:1,2017-04-01T21:00:00Z,30.3288,-87.8293,2.179,5.16,1111122 
DISL,ioos:station:DISL:BSCA:1,2017-04-01T21:30:00Z,30.3288,-87.8293,2.157,5.63,1111122 
DISL,ioos:station:DISL:BSCA:1,2017-04-01T22:00:00Z,30.3288,-87.8293,2.136,7.14,1111122 
DISL,ioos:station:DISL:BSCA:1,2017-04-01T22:30:00Z,30.3288,-87.8293,2.119,7.46,1111122 
DISL,ioos:station:DISL:BSCA:1,2017-04-01T23:00:00Z,30.3288,-87.8293,2.101,7.54,1111122 
DISL,ioos:station:DISL:BSCA:1,2017-04-01T23:30:00Z,30.3288,-87.8293,2.073,6.93,1111122 
DISL,ioos:station:DISL:BSCA:1,2017-04-02T00:00:00Z,30.3288,-87.8293,2.042,6.87,1111122 
DISL,ioos:station:DISL:BSCA:1,2017-04-02T00:30:00Z,30.3288,-87.8293,2.007,7.58,1111122 
DISL,ioos:station:DISL:BSCA:1,2017-04-02T01:00:00Z,30.3288,-87.8293,1.971,7.07,1111122 
DISL,ioos:station:DISL:BSCA:1,2017-04-02T01:30:00Z,30.3288,-87.8293,1.93,7.41,1111122 
DISL,ioos:station:DISL:BSCA:1,2017-04-02T02:00:00Z,30.3288,-87.8293,1.908,7.29,1111122 
DISL,ioos:station:DISL:BSCA:1,2017-04-02T02:30:00Z,30.3288,-87.8293,1.883,6.68,1111122 
DISL,ioos:station:DISL:BSCA:1,2017-04-02T03:00:00Z,30.3288,-87.8293,1.859,6.72,1111122 
DISL,ioos:station:DISL:BSCA:1,2017-04-02T03:30:00Z,30.3288,-87.8293,1.835,6.25,1111122 
DISL,ioos:station:DISL:BSCA:1,2017-04-02T04:00:00Z,30.3288,-87.8293,1.811,6.41,1111122 
DISL,ioos:station:DISL:BSCA:1,2017-04-02T04:30:00Z,30.3288,-87.8293,1.786,6.95,1111122 
DISL,ioos:station:DISL:BSCA:1,2017-04-02T05:00:00Z,30.3288,-87.8293,1.759,7.0,1111122 
DISL,ioos:station:DISL:BSCA:1,2017-04-02T05:30:00Z,30.3288,-87.8293,1.739,7.52,1111122 
DISL,ioos:station:DISL:BSCA:1,2017-04-02T06:00:00Z,30.3288,-87.8293,1.723,7.16,1111122 
DISL,ioos:station:DISL:BSCA:1,2017-04-02T06:30:00Z,30.3288,-87.8293,1.713,7.08,1111122 
DISL,ioos:station:DISL:BSCA:1,2017-04-02T07:00:00Z,30.3288,-87.8293,1.704,6.99,1111122 
DISL,ioos:station:DISL:BSCA:1,2017-04-02T07:30:00Z,30.3288,-87.8293,1.697,6.73,1111122 
DISL,ioos:station:DISL:BSCA:1,2017-04-02T08:00:00Z,30.3288,-87.8293,1.697,7.03,1111122 
DISL,ioos:station:DISL:BSCA:1,2017-04-02T08:30:00Z,30.3288,-87.8293,1.708,6.59,1111122 
DISL,ioos:station:DISL:BSCA:1,2017-04-02T09:00:00Z,30.3288,-87.8293,1.735,6.3,1111122 
DISL,ioos:station:DISL:BSCA:1,2017-04-02T09:30:00Z,30.3288,-87.8293,1.765,6.92,1111122 
DISL,ioos:station:DISL:BSCA:1,2017-04-02T10:00:00Z,30.3288,-87.8293,1.796,5.69,1111122 
DISL,ioos:station:DISL:BSCA:1,2017-04-02T10:30:00Z,30.3288,-87.8293,1.824,4.14,1111122 
DISL,ioos:station:DISL:BSCA:1,2017-04-02T11:00:00Z,30.3288,-87.8293,1.846,3.3,1111122 
DISL,ioos:station:DISL:BSCA:1,2017-04-02T11:30:00Z,30.3288,-87.8293,1.871,3.27,1111122 
DISL,ioos:station:DISL:BSCA:1,2017-04-02T12:00:00Z,30.3288,-87.8293,1.881,2.79,1111122 
DISL,ioos:station:DISL:BSCA:1,2017-04-02T12:30:00Z,30.3288,-87.8293,1.906,2.5,1111122 
DISL,ioos:station:DISL:BSCA:1,2017-04-02T13:00:00Z,30.3288,-87.8293,1.941,3.16,1111122 
DISL,ioos:station:DISL:BSCA:1,2017-04-02T13:30:00Z,30.3288,-87.8293,1.991,3.38,1111122 
DISL,ioos:station:DISL:BSCA:1,2017-04-02T14:00:00Z,30.3288,-87.8293,2.034,2.55,1111122 
DISL,ioos:station:DISL:BSCA:1,2017-04-02T14:30:00Z,30.3288,-87.8293,2.074,0.85,1111122 
DISL,ioos:station:DISL:BSCA:1,2017-04-02T15:00:00Z,30.3288,-87.8293,2.109,1.69,1111122 
DISL,ioos:station:DISL:BSCA:1,2017-04-02T15:30:00Z,30.3288,-87.8293,2.115,1.48,1111122 
DISL,ioos:station:DISL:BSCA:1,2017-04-02T16:00:00Z,30.3288,-87.8293,2.108,2.04,1111122 
DISL,ioos:station:DISL:BSCA:1,2017-04-02T16:30:00Z,30.3288,-87.8293,2.128,2.85,1111122 
DISL,ioos:station:DISL:BSCA:1,2017-04-02T17:00:00Z,30.3288,-87.8293,2.121,3.89,1111122 
DISL,ioos:station:DISL:BSCA:1,2017-04-02T17:30:00Z,30.3288,-87.8293,2.141,4.19,1111122 
DISL,ioos:station:DISL:BSCA:1,2017-04-02T18:00:00Z,30.3288,-87.8293,2.149,4.54,1111122 
DISL,ioos:station:DISL:BSCA:1,2017-04-02T18:30:00Z,30.3288,-87.8293,2.2,5.58,1111122 
DISL,ioos:station:DISL:BSCA:1,2017-04-02T19:00:00Z,30.3288,-87.8293,2.138,6.87,1111122 
DISL,ioos:station:DISL:BSCA:1,2017-04-02T19:30:00Z,30.3288,-87.8293,2.175,6.91,1111122 
DISL,ioos:station:DISL:BSCA:1,2017-04-02T20:00:00Z,30.3288,-87.8293,2.173,6.81,1111122 
DISL,ioos:station:DISL:BSCA:1,2017-04-02T20:30:00Z,30.3288,-87.8293,2.225,7.26,1111122 
DISL,ioos:station:DISL:BSCA:1,2017-04-02T21:00:00Z,30.3288,-87.8293,2.226,7.1,1111122 
DISL,ioos:station:DISL:BSCA:1,2017-04-02T21:30:00Z,30.3288,-87.8293,2.237,6.31,1111122 
DISL,ioos:station:DISL:BSCA:1,2017-04-02T22:00:00Z,30.3288,-87.8293,2.213,6.52,1111122 
DISL,ioos:station:DISL:BSCA:1,2017-04-02T22:30:00Z,30.3288,-87.8293,2.188,7.36,1111122 
DISL,ioos:station:DISL:BSCA:1,2017-04-02T23:00:00Z,30.3288,-87.8293,2.148,6.67,1111122 
DISL,ioos:station:DISL:BSCA:1,2017-04-02T23:30:00Z,30.3288,-87.8293,2.113,6.06,1111122 
DISL,ioos:station:DISL:BSCA:1,2017-04-03T00:00:00Z,30.3288,-87.8293,2.099,6.33,1111122 
DISL,ioos:station:DISL:BSCA:1,2017-04-03T00:30:00Z,30.3288,-87.8293,2.092,6.21,1111122 
DISL,ioos:station:DISL:BSCA:1,2017-04-03T01:00:00Z,30.3288,-87.8293,2.08,6.47,1111122 
DISL,ioos:station:DISL:BSCA:1,2017-04-03T01:30:00Z,30.3288,-87.8293,2.049,6.31,1111122 
DISL,ioos:station:DISL:BSCA:1,2017-04-03T02:00:00Z,30.3288,-87.8293,2.005,6.37,1111122 
DISL,ioos:station:DISL:BSCA:1,2017-04-03T02:30:00Z,30.3288,-87.8293,2.051,6.38,1111122 
DISL,ioos:station:DISL:BSCA:1,2017-04-03T03:00:00Z,30.3288,-87.8293,1.954,5.94,1111122 
DISL,ioos:station:DISL:BSCA:1,2017-04-03T03:30:00Z,30.3288,-87.8293,1.981,6.38,1111122 
DISL,ioos:station:DISL:BSCA:1,2017-04-03T04:00:00Z,30.3288,-87.8293,1.921,6.47,1111122 
DISL,ioos:station:DISL:BSCA:1,2017-04-03T04:30:00Z,30.3288,-87.8293,1.84,6.42,1111122 
DISL,ioos:station:DISL:BSCA:1,2017-04-03T05:00:00Z,30.3288,-87.8293,1.94,6.29,1111122 
DISL,ioos:station:DISL:BSCA:1,2017-04-03T05:30:00Z,30.3288,-87.8293,1.935,6.32,1111122 
DISL,ioos:station:DISL:BSCA:1,2017-04-03T06:00:00Z,30.3288,-87.8293,1.795,6.15,1111122 
DISL,ioos:station:DISL:BSCA:1,2017-04-03T06:30:00Z,30.3288,-87.8293,1.954,6.23,1111122 
DISL,ioos:station:DISL:BSCA:1,2017-04-03T07:00:00Z,30.3288,-87.8293,1.877,6.17,1111122 
DISL,ioos:station:DISL:BSCA:1,2017-04-03T07:30:00Z,30.3288,-87.8293,1.896,6.09,1111122 
DISL,ioos:station:DISL:BSCA:1,2017-04-03T08:00:00Z,30.3288,-87.8293,1.972,6.27,1111122 
DISL,ioos:station:DISL:BSCA:1,2017-04-03T08:30:00Z,30.3288,-87.8293,1.96,6.31,1111122 
DISL,ioos:station:DISL:BSCA:1,2017-04-03T09:00:00Z,30.3288,-87.8293,1.978,6.46,1111122 
DISL,ioos:station:DISL:BSCA:1,2017-04-03T09:30:00Z,30.3288,-87.8293,1.977,6.41,1111122 
DISL,ioos:station:DISL:BSCA:1,2017-04-03T10:00:00Z,30.3288,-87.8293,2.01,6.35,1111122 
DISL,ioos:station:DISL:BSCA:1,2017-04-03T10:30:00Z,30.3288,-87.8293,2.019,6.34,1111122 
DISL,ioos:station:DISL:BSCA:1,2017-04-03T11:00:00Z,30.3288,-87.8293,2.089,6.37,1111122 
DISL,ioos:station:DISL:BSCA:1,2017-04-03T11:30:00Z,30.3288,-87.8293,2.104,6.37,1111122 
DISL,ioos:station:DISL:BSCA:1,2017-04-03T12:00:00Z,30.3288,-87.8293,2.131,6.24,1111122 
DISL,ioos:station:DISL:BSCA:1,2017-04-03T12:30:00Z,30.3288,-87.8293,2.168,6.23,1111122 
DISL,ioos:station:DISL:BSCA:1,2017-04-03T13:00:00Z,30.3288,-87.8293,2.191,6.01,1111122 
DISL,ioos:station:DISL:BSCA:1,2017-04-03T13:30:00Z,30.3288,-87.8293,2.197,5.81,1111122 
DISL,ioos:station:DISL:BSCA:1,2017-04-03T14:00:00Z,30.3288,-87.8293,2.261,5.78,1111122 
DISL,ioos:station:DISL:BSCA:1,2017-04-03T14:30:00Z,30.3288,-87.8293,2.129,6.42,1111122 
DISL,ioos:station:DISL:BSCA:1,2017-04-03T15:00:00Z,30.3288,-87.8293,2.509,6.47,1111122 
DISL,ioos:station:DISL:BSCA:1,2017-04-03T15:30:00Z,30.3288,-87.8293,2.369,6.18,1111122 
DISL,ioos:station:DISL:BSCA:1,2017-04-03T16:00:00Z,30.3288,-87.8293,2.251,6.32,1111122 
DISL,ioos:station:DISL:BSCA:1,2017-04-03T16:30:00Z,30.3288,-87.8293,2.106,6.42,1111122 
DISL,ioos:station:DISL:BSCA:1,2017-04-03T17:00:00Z,30.3288,-87.8293,1.884,6.55,1111122 
DISL,ioos:station:DISL:BSCA:1,2017-04-03T17:30:00Z,30.3288,-87.8293,1.87,6.53,1111122 
DISL,ioos:station:DISL:BSCA:1,2017-04-03T18:00:00Z,30.3288,-87.8293,1.872,6.32,1111122 
DISL,ioos:station:DISL:BSCA:1,2017-04-03T18:30:00Z,30.3288,-87.8293,1.976,6.06,1111122 
DISL,ioos:station:DISL:BSCA:1,2017-04-03T19:00:00Z,30.3288,-87.8293,2.134,6.3,1111122 
DISL,ioos:station:DISL:BSCA:1,2017-04-03T19:30:00Z,30.3288,-87.8293,2.236,6.18,1111122 
DISL,ioos:station:DISL:BSCA:1,2017-04-03T20:00:00Z,30.3288,-87.8293,2.338,5.35,1111122 
DISL,ioos:station:DISL:BSCA:1,2017-04-03T20:30:00Z,30.3288,-87.8293,2.299,6.28,1111122 
DISL,ioos:station:DISL:BSCA:1,2017-04-03T21:00:00Z,30.3288,-87.8293,2.276,6.51,1111122 
DISL,ioos:station:DISL:BSCA:1,2017-04-03T21:30:00Z,30.3288,-87.8293,2.23,6.67,1111122 
DISL,ioos:station:DISL:BSCA:1,2017-04-03T22:00:00Z,30.3288,-87.8293,2.213,6.75,1111122 
DISL,ioos:station:DISL:BSCA:1,2017-04-03T22:30:00Z,30.3288,-87.8293,2.214,6.02,1111122 
DISL,ioos:station:DISL:BSCA:1,2017-04-03T23:00:00Z,30.3288,-87.8293,2.256,5.82,1111122 
DISL,ioos:station:DISL:BSCA:1,2017-04-03T23:30:00Z,30.3288,-87.8293,2.302,6.1,1111122 
DISL,ioos:station:DISL:BSCA:1,2017-04-04T00:00:00Z,30.3288,-87.8293,2.338,6.4,1111122 
DISL,ioos:station:DISL:BSCA:1,2017-04-04T00:30:00Z,30.3288,-87.8293,2.342,6.21,1111122 
DISL,ioos:station:DISL:BSCA:1,2017-04-04T01:00:00Z,30.3288,-87.8293,2.328,5.94,1111122 
DISL,ioos:station:DISL:BSCA:1,2017-04-04T01:30:00Z,30.3288,-87.8293,2.28,6.06,1111122 
DISL,ioos:station:DISL:BSCA:1,2017-04-04T02:00:00Z,30.3288,-87.8293,2.228,6.05,1111122 
DISL,ioos:station:DISL:BSCA:1,2017-04-04T02:30:00Z,30.3288,-87.8293,2.192,6.27,1111122 
DISL,ioos:station:DISL:BSCA:1,2017-04-04T03:00:00Z,30.3288,-87.8293,2.133,6.19,1111122 
DISL,ioos:station:DISL:BSCA:1,2017-04-04T03:30:00Z,30.3288,-87.8293,2.138,6.18,1111122 
DISL,ioos:station:DISL:BSCA:1,2017-04-04T04:00:00Z,30.3288,-87.8293,2.125,6.02,1111122 
DISL,ioos:station:DISL:BSCA:1,2017-04-04T04:30:00Z,30.3288,-87.8293,2.112,6.2,1111122 
DISL,ioos:station:DISL:BSCA:1,2017-04-04T05:00:00Z,30.3288,-87.8293,2.071,5.93,1111122 
DISL,ioos:station:DISL:BSCA:1,2017-04-04T05:30:00Z,30.3288,-87.8293,2.032,5.93,1111122 
DISL,ioos:station:DISL:BSCA:1,2017-04-04T06:00:00Z,30.3288,-87.8293,2.006,6.07,1111122 
DISL,ioos:station:DISL:BSCA:1,2017-04-04T06:30:00Z,30.3288,-87.8293,1.98,6.43,1111122 
DISL,ioos:station:DISL:BSCA:1,2017-04-04T07:00:00Z,30.3288,-87.8293,1.953,6.43,1111122 
DISL,ioos:station:DISL:BSCA:1,2017-04-04T07:30:00Z,30.3288,-87.8293,1.946,5.99,1111122 
DISL,ioos:station:DISL:BSCA:1,2017-04-04T08:00:00Z,30.3288,-87.8293,1.934,5.77,1111122 
DISL,ioos:station:DISL:BSCA:1,2017-04-04T08:30:00Z,30.3288,-87.8293,1.92,5.89,1111122 
DISL,ioos:station:DISL:BSCA:1,2017-04-04T09:00:00Z,30.3288,-87.8293,1.918,4.94,1111122 
DISL,ioos:station:DISL:BSCA:1,2017-04-04T09:30:00Z,30.3288,-87.8293,1.91,4.42,1111122 
DISL,ioos:station:DISL:BSCA:1,2017-04-04T10:00:00Z,30.3288,-87.8293,1.901,4.39,1111122 
DISL,ioos:station:DISL:BSCA:1,2017-04-04T10:30:00Z,30.3288,-87.8293,1.894,4.75,1111122 
DISL,ioos:station:DISL:BSCA:1,2017-04-04T11:00:00Z,30.3288,-87.8293,1.882,4.77,1111122 
DISL,ioos:station:DISL:BSCA:1,2017-04-04T11:30:00Z,30.3288,-87.8293,1.883,4.38,1111122 
DISL,ioos:station:DISL:BSCA:1,2017-04-04T12:00:00Z,30.3288,-87.8293,1.904,4.42,1111122 
DISL,ioos:station:DISL:BSCA:1,2017-04-04T12:30:00Z,30.3288,-87.8293,1.924,4.66,1111122 
DISL,ioos:station:DISL:BSCA:1,2017-04-04T13:00:00Z,30.3288,-87.8293,1.953,4.65,1111122 
DISL,ioos:station:DISL:BSCA:1,2017-04-04T13:30:00Z,30.3288,-87.8293,1.988,4.01,1111122 
DISL,ioos:station:DISL:BSCA:1,2017-04-04T14:00:00Z,30.3288,-87.8293,2.01,4.12,1111122 
DISL,ioos:station:DISL:BSCA:1,2017-04-04T14:30:00Z,30.3288,-87.8293,2.04,4.27,1111122 
DISL,ioos:station:DISL:BSCA:1,2017-04-04T15:00:00Z,30.3288,-87.8293,2.067,3.97,1111122 
DISL,ioos:station:DISL:BSCA:1,2017-04-04T15:30:00Z,30.3288,-87.8293,2.097,3.81,1111122 
DISL,ioos:station:DISL:BSCA:1,2017-04-04T16:00:00Z,30.3288,-87.8293,2.128,3.95,1111122 
DISL,ioos:station:DISL:BSCA:1,2017-04-04T16:30:00Z,30.3288,-87.8293,2.148,4.09,1111122 
DISL,ioos:station:DISL:BSCA:1,2017-04-04T17:00:00Z,30.3288,-87.8293,2.155,4.1,1111122 
DISL,ioos:station:DISL:BSCA:1,2017-04-04T17:30:00Z,30.3288,-87.8293,2.167,4.03,1111122 
DISL,ioos:station:DISL:BSCA:1,2017-04-04T18:00:00Z,30.3288,-87.8293,2.177,3.85,1111122 
DISL,ioos:station:DISL:BSCA:1,2017-04-04T18:30:00Z,30.3288,-87.8293,2.193,4.14,1111122 
DISL,ioos:station:DISL:BSCA:1,2017-04-04T19:00:00Z,30.3288,-87.8293,2.198,4.61,1111122 
DISL,ioos:station:DISL:BSCA:1,2017-04-04T19:30:00Z,30.3288,-87.8293,2.214,4.75,1111122 
DISL,ioos:station:DISL:BSCA:1,2017-04-04T20:00:00Z,30.3288,-87.8293,2.233,5.14,1111122 
DISL,ioos:station:DISL:BSCA:1,2017-04-04T20:30:00Z,30.3288,-87.8293,2.242,5.13,1111122 
DISL,ioos:station:DISL:BSCA:1,2017-04-04T21:00:00Z,30.3288,-87.8293,2.255,6.2,1111122 
DISL,ioos:station:DISL:BSCA:1,2017-04-04T21:30:00Z,30.3288,-87.8293,2.26,6.89,1111122 
DISL,ioos:station:DISL:BSCA:1,2017-04-04T22:00:00Z,30.3288,-87.8293,2.263,7.35,1111122 
DISL,ioos:station:DISL:BSCA:1,2017-04-04T22:30:00Z,30.3288,-87.8293,2.271,7.51,1111122 
DISL,ioos:station:DISL:BSCA:1,2017-04-04T23:00:00Z,30.3288,-87.8293,2.272,7.06,1111122 
DISL,ioos:station:DISL:BSCA:1,2017-04-04T23:30:00Z,30.3288,-87.8293,2.26,7.13,1111122 
DISL,ioos:station:DISL:BSCA:1,2017-04-05T00:00:00Z,30.3288,-87.8293,2.254,6.93,1111122 
DISL,ioos:station:DISL:BSCA:1,2017-04-05T00:30:00Z,30.3288,-87.8293,2.25,7.04,1111122 
DISL,ioos:station:DISL:BSCA:1,2017-04-05T01:00:00Z,30.3288,-87.8293,2.242,7.02,1111122 
DISL,ioos:station:DISL:BSCA:1,2017-04-05T01:30:00Z,30.3288,-87.8293,2.212,7.1,1111122 
DISL,ioos:station:DISL:BSCA:1,2017-04-05T02:00:00Z,30.3288,-87.8293,2.197,6.94,1111122 
DISL,ioos:station:DISL:BSCA:1,2017-04-05T02:30:00Z,30.3288,-87.8293,2.182,6.9,1111122 
DISL,ioos:station:DISL:BSCA:1,2017-04-05T03:00:00Z,30.3288,-87.8293,2.156,6.37,1111122 
DISL,ioos:station:DISL:BSCA:1,2017-04-05T03:30:00Z,30.3288,-87.8293,2.134,6.69,1111122 
DISL,ioos:station:DISL:BSCA:1,2017-04-05T04:00:00Z,30.3288,-87.8293,2.106,6.14,1111122 
DISL,ioos:station:DISL:BSCA:1,2017-04-05T04:30:00Z,30.3288,-87.8293,2.086,6.4,1111122 
DISL,ioos:station:DISL:BSCA:1,2017-04-05T05:00:00Z,30.3288,-87.8293,2.053,6.22,1111122 
DISL,ioos:station:DISL:BSCA:1,2017-04-05T05:30:00Z,30.3288,-87.8293,2.02,6.18,1111122 
DISL,ioos:station:DISL:BSCA:1,2017-04-05T06:00:00Z,30.3288,-87.8293,1.997,6.2,1111122 
DISL,ioos:station:DISL:BSCA:1,2017-04-05T06:30:00Z,30.3288,-87.8293,1.989,5.87,1111122 
DISL,ioos:station:DISL:BSCA:1,2017-04-05T07:00:00Z,30.3288,-87.8293,2.031,6.05,1111122 
DISL,ioos:station:DISL:BSCA:1,2017-04-05T07:30:00Z,30.3288,-87.8293,1.959,5.78,1111122 
DISL,ioos:station:DISL:BSCA:1,2017-04-05T08:00:00Z,30.3288,-87.8293,1.963,5.79,1111122 
DISL,ioos:station:DISL:BSCA:1,2017-04-05T08:30:00Z,30.3288,-87.8293,1.957,5.64,1111122 
DISL,ioos:station:DISL:BSCA:1,2017-04-05T09:00:00Z,30.3288,-87.8293,1.961,5.66,1111122 
DISL,ioos:station:DISL:BSCA:1,2017-04-05T09:30:00Z,30.3288,-87.8293,1.985,5.64,1111122 
DISL,ioos:station:DISL:BSCA:1,2017-04-05T10:00:00Z,30.3288,-87.8293,1.963,5.64,1111122 
DISL,ioos:station:DISL:BSCA:1,2017-04-05T10:30:00Z,30.3288,-87.8293,1.951,5.81,1111122 
DISL,ioos:station:DISL:BSCA:1,2017-04-05T11:00:00Z,30.3288,-87.8293,1.972,5.63,1111122 
DISL,ioos:station:DISL:BSCA:1,2017-04-05T11:30:00Z,30.3288,-87.8293,1.981,5.68,1111122 
DISL,ioos:station:DISL:BSCA:1,2017-04-05T12:00:00Z,30.3288,-87.8293,2.055,5.8,1111122 
DISL,ioos:station:DISL:BSCA:1,2017-04-05T12:30:00Z,30.3288,-87.8293,2.047,5.8,1111122 
DISL,ioos:station:DISL:BSCA:1,2017-04-05T13:00:00Z,30.3288,-87.8293,2.065,5.91,1111122 
DISL,ioos:station:DISL:BSCA:1,2017-04-05T13:30:00Z,30.3288,-87.8293,2.134,5.87,1111122 
DISL,ioos:station:DISL:BSCA:1,2017-04-05T14:00:00Z,30.3288,-87.8293,2.101,6.02,1111122 
DISL,ioos:station:DISL:BSCA:1,2017-04-05T14:30:00Z,30.3288,-87.8293,2.211,6.26,1111122 
DISL,ioos:station:DISL:BSCA:1,2017-04-05T15:00:00Z,30.3288,-87.8293,2.226,6.3,1111122 
DISL,ioos:station:DISL:BSCA:1,2017-04-05T15:30:00Z,30.3288,-87.8293,2.305,6.35,1111122 
DISL,ioos:station:DISL:BSCA:1,2017-04-05T16:00:00Z,30.3288,-87.8293,2.37,6.38,1111122 
DISL,ioos:station:DISL:BSCA:1,2017-04-05T16:30:00Z,30.3288,-87.8293,2.455,6.47,1111122 
DISL,ioos:station:DISL:BSCA:1,2017-04-05T17:00:00Z,30.3288,-87.8293,2.279,6.49,1111122 
DISL,ioos:station:DISL:BSCA:1,2017-04-05T17:30:00Z,30.3288,-87.8293,2.326,6.05,1111122 
DISL,ioos:station:DISL:BSCA:1,2017-04-05T18:00:00Z,30.3288,-87.8293,2.353,6.01,1111122 
DISL,ioos:station:DISL:BSCA:1,2017-04-05T18:30:00Z,30.3288,-87.8293,2.352,6.22,1111122 
DISL,ioos:station:DISL:BSCA:1,2017-04-05T19:00:00Z,30.3288,-87.8293,2.357,6.47,1111122 
DISL,ioos:station:DISL:BSCA:1,2017-04-05T19:30:00Z,30.3288,-87.8293,2.361,6.78,1111122 
DISL,ioos:station:DISL:BSCA:1,2017-04-05T20:00:00Z,30.3288,-87.8293,2.408,6.98,1111122 
DISL,ioos:station:DISL:BSCA:1,2017-04-05T20:30:00Z,30.3288,-87.8293,2.309,7.05,1111122 
DISL,ioos:station:DISL:BSCA:1,2017-04-05T21:00:00Z,30.3288,-87.8293,2.371,7.22,1111122 
DISL,ioos:station:DISL:BSCA:1,2017-04-05T21:30:00Z,30.3288,-87.8293,2.366,7.27,1111122 
DISL,ioos:station:DISL:BSCA:1,2017-04-05T22:00:00Z,30.3288,-87.8293,2.368,6.9,1111122 
DISL,ioos:station:DISL:BSCA:1,2017-04-05T22:30:00Z,30.3288,-87.8293,2.319,6.86,1111122 
DISL,ioos:station:DISL:BSCA:1,2017-04-05T23:00:00Z,30.3288,-87.8293,2.243,6.84,1111122 
DISL,ioos:station:DISL:BSCA:1,2017-04-05T23:30:00Z,30.3288,-87.8293,2.361,6.93,1111122 
DISL,ioos:station:DISL:BSCA:1,2017-04-06T00:00:00Z,30.3288,-87.8293,2.346,6.97,1111122 
DISL,ioos:station:DISL:BSCA:1,2017-04-06T00:30:00Z,30.3288,-87.8293,2.334,7.04,1111122 
DISL,ioos:station:DISL:BSCA:1,2017-04-06T01:00:00Z,30.3288,-87.8293,2.316,6.9,1111122 
DISL,ioos:station:DISL:BSCA:1,2017-04-06T01:30:00Z,30.3288,-87.8293,2.336,7.0,1111122 
DISL,ioos:station:DISL:BSCA:1,2017-04-06T02:00:00Z,30.3288,-87.8293,2.375,6.82,1111122 
DISL,ioos:station:DISL:BSCA:1,2017-04-06T02:30:00Z,30.3288,-87.8293,2.457,6.96,1111122 
DISL,ioos:station:DISL:BSCA:1,2017-04-06T03:00:00Z,30.3288,-87.8293,2.679,6.82,1111122 
DISL,ioos:station:DISL:BSCA:1,2017-04-06T03:30:00Z,30.3288,-87.8293,2.554,6.88,1111122 
DISL,ioos:station:DISL:BSCA:1,2017-04-06T04:00:00Z,30.3288,-87.8293,2.6,6.81,1111122 
DISL,ioos:station:DISL:BSCA:1,2017-04-06T04:30:00Z,30.3288,-87.8293,2.43,6.89,1111122 
DISL,ioos:station:DISL:BSCA:1,2017-04-06T05:00:00Z,30.3288,-87.8293,2.51,6.77,1111122 
DISL,ioos:station:DISL:BSCA:1,2017-04-06T05:30:00Z,30.3288,-87.8293,2.423,6.69,1111122 
DISL,ioos:station:DISL:BSCA:1,2017-04-06T06:00:00Z,30.3288,-87.8293,2.15,6.82,1111122 
DISL,ioos:station:DISL:BSCA:1,2017-04-06T06:30:00Z,30.3288,-87.8293,2.141,6.81,1111122 
DISL,ioos:station:DISL:BSCA:1,2017-04-06T07:00:00Z,30.3288,-87.8293,2.121,6.83,1111122 
DISL,ioos:station:DISL:BSCA:1,2017-04-06T07:30:00Z,30.3288,-87.8293,1.87,6.84,1111122 
DISL,ioos:station:DISL:BSCA:1,2017-04-06T08:00:00Z,30.3288,-87.8293,1.937,6.77,1111122 
DISL,ioos:station:DISL:BSCA:1,2017-04-06T08:30:00Z,30.3288,-87.8293,1.9,6.81,1111122 
DISL,ioos:station:DISL:BSCA:1,2017-04-06T09:00:00Z,30.3288,-87.8293,1.852,6.88,1111122 
DISL,ioos:station:DISL:BSCA:1,2017-04-06T09:30:00Z,30.3288,-87.8293,1.937,6.87,1111122 
DISL,ioos:station:DISL:BSCA:1,2017-04-06T10:00:00Z,30.3288,-87.8293,1.801,6.88,1111122 
DISL,ioos:station:DISL:BSCA:1,2017-04-06T10:30:00Z,30.3288,-87.8293,1.831,6.73,1111122 
DISL,ioos:station:DISL:BSCA:1,2017-04-06T11:00:00Z,30.3288,-87.8293,1.742,6.79,1111122 
DISL,ioos:station:DISL:BSCA:1,2017-04-06T11:30:00Z,30.3288,-87.8293,1.701,6.81,1111122 
DISL,ioos:station:DISL:BSCA:1,2017-04-06T12:00:00Z,30.3288,-87.8293,1.782,6.75,1111122 
DISL,ioos:station:DISL:BSCA:1,2017-04-06T12:30:00Z,30.3288,-87.8293,1.707,6.6,1111122 
DISL,ioos:station:DISL:BSCA:1,2017-04-06T13:00:00Z,30.3288,-87.8293,1.721,6.79,1111122 
DISL,ioos:station:DISL:BSCA:1,2017-04-06T13:30:00Z,30.3288,-87.8293,1.751,6.98,1111122 
DISL,ioos:station:DISL:BSCA:1,2017-04-06T14:00:00Z,30.3288,-87.8293,1.753,7.11,1111122 
DISL,ioos:station:DISL:BSCA:1,2017-04-06T14:30:00Z,30.3288,-87.8293,1.828,7.3,1111122 
DISL,ioos:station:DISL:BSCA:1,2017-04-06T15:00:00Z,30.3288,-87.8293,1.879,7.34,1111122 
DISL,ioos:station:DISL:BSCA:1,2017-04-06T15:30:00Z,30.3288,-87.8293,1.904,7.38,1111122 